SCP
-0 -0 -0 -0 -0 -0 -0 0 0 0 0 -0 -0 -0 -0 -0 -0 -0 -0 -0 -0 -0 -0 -0 -0 -0 -0 -0 -0 -0 -0 -0 -0 -0 -0 -0 -0 -0 -0 -0 -0 -0 -0
0 -0 0 -0 -0 -0 -0 -0 -0 -0 0 -0 0 -0 -0 -0 -0 -0 -0 -0 -0 -0 -0 -0 -0 -0 -0 -0 -0 -0 -0 -0 -0 -0 -0 -0 -0 -0 -0 -0 -0 -0 -0
-0 -0 0 -0 -0 -0 -0 -0 -0 -0 -0 -0 -0 -0 -0 -0 -0 -0 -0 -0 -0 -0 -0 -0 -0 -0 -0 -0 -0 -0 -0 -0 -0 -0 -0 0 -0 -0 -0 -0 -0 -0 -0
-0 0 0 -0 -0 -0 -0 -0 -0 -0 -0 -0 -0 -0 -0 -0 -0 -0 -0 -0 -0 -0 -0 -0 -0 -0 -0 -0 -0 -0 -0 -0 -0 -0 0 0 -0 -0 -0 -0 -0 -0 -0
0 0 0 -0 -0 -0 -0 -0 -0 -0 -0 -0 -0 -0 -0 -0 -0 -0 -0 -0 -0 -0 -0 -0 -0 -0 -0 -0 -0 -0 -0 -0 -0 0 0 -0 -0 -0 -0 -0 -0 -0 -0
0 0 0 0 -0 -0 -0 -0 -0 -0 -0 -0 -0 -0 -0 -0 -0 -0 -0 -0 -0 -0 -0 -0 -0 -0 -0 -0 -0 -0 -0 -0 -0 0 -0 -0 -0 -0 -0 -0 -0 -0 -0
0 0 0 -0 -0 -0 -0 -0 -0 -0 -0 -0 -0 -0 -0 -0 -0 -0 -0 -0 -0 -0 -0 -0 -0 -0 -0 -0 -0 -0 -0 -0 0 -0 0 -0 -0 -0 -0 -0 -0 -0 -0
-0 -0 -0 -0 -0 -0 -0 -0 -0 -0 -0 -0 -0 -0 -0 -0 -0 -0 -0 -0 -0 -0 -0 -0 -0 -0 -0 -0 -0 -0 -0 -0 -0 0 0 0 -0 -0 -0 -0 -0 -0 -0
-0 -0 -0 -0 -0 -0 -0 -0 -0 -0 -0 -0 -0 -0 -0 -0 -0 -0 -0 -0 -0 -0 -0 -0 -0 -0 -0 -0 -0 -0 -0 -0 -0 0 -0 0 -0 -0 -0 -0 -0 -0 -0
-0 -0 -0 -0 -0 -0 -0 -0 -0 -0 -0 -0 -0 -0 -0 -0 -0 -0 -0 -0 -0 -0 -0 -0 -0 -0 -0 -0 -0 -0 -0 -0 0 0 0 0 -0 -0 -0 -0 -0 0 0
-0 -0 -0 -0 -0 -0 -0 -0 -0 -0 -0 -0 -0 -0 0 0 0 0 0 -0 -0 -0 -0 -0 -0 -0 -0 -0 -0 -0 0 0 0 0 0 -0 -0 -0 0 0 0 0 0
-0 -0 -0 -0 -0 -0 0 0 0 0 0 0 0 0 0 0 0 0 0 -0 -0 -0 -0 -0 -0 -0 0 0 0 0 0 0 0 0 0 0 0 0 0 0 0 0 0
-0 0 -0 -0 -0 -0 0 0 0 0 0 0 0 0 0 0 0 0 0 0 0 0 0 0 0 0 0 0 0 0 0 0 0 0 0 0 0 0 0 0 0 0 0
-0 -0 -0 -0 -0 -0 0 0 0 0 0 0 0 0 0 0 0 0 0 0 0 0 0 0 0 0 0 0 0 0 0 0 0 0 0 0 0 0 0 0 0 0 0
-0 -0 -0 -0 -0 -0 0 0 0 0 0 0 0 0 0 0 0 0 0 0 0 0 0 0 0 0 0 0 0 0 0 0 0 0 0 0 0 0 0 0 0 0 0
-0 -0 -0 -0 -0 -0 0 0 0 0 0 0 0 0 0 0 0 0 0 0 0 0 0 0 0 0 0 0 0 0 0 0 0 0 0 0 0 0 0 0 0 0 0
-0 -0 -0 -0 -0 -0 -0 0 0 0 0 0 0 0 0 0 0 0 0 0 0 0 0 0 0 0 0 0 0 0 0 0 0 0 0 0 0 0 0 0 0 0 0
0 -0 -0 -0 -0 -0 -0 0 0 0 0 0 0 0 0 0 0 0 0 0 0 0 0 0 0 0 0 0 0 0 0 0 0 0 0 0 0 0 0 0 0 0 0
-0 -0 -0 -0 -0 -0 0 0 0 0 0 0 0 0 0 0 0 0 0 0 0 0 0 0 0 0 0 0 0 0 0 0 0 0 0 0 0 0 0 0 0 0 0
0 -0 -0 0 0 0 0 0 0 0 0 0 0 0 0 0 0 0 0 0 0 0 0 0 0 0 0 0 0 0 0 0 0 0 0 0 0 0 0 0 0 0 0
0 0 0 0 0 0 0 0 0 0 0 0 0 0 0 0 0 0 0 0 0 0 0 0 0 0 0 0 0 0 0 0 0 0 0 0 0 0 0 0 0 0 0
0 0 0 0 0 0 0 0 0 0 0 0 0 0 0 0 0 0 0 0 0 0 0 0 0 0 0 0 0 0 0 0 0 0 0 0 0 0 0 0 0 0 0
0 0 0 0 0 0 0 0 0 0 0 0 0 0 0 0 0 0 0 0 0 0 0 0 0 0 0 0 0 0 0 0 0 0 0 0 0 0 0 0 0 0 0
0 0 0 0 0 0 0 0 0 0 0 0 0 0 0 0 0 0 0 0 0 0 0 0 0 0 0 0 0 0 0 0 0 0 0 0 0 0 0 0 0 0 0
0 0 0 0 0 0 0 0 0 0 0 0 0 0 0 0 0 0 0 0 0 0 0 0 0 0 0 0 0 0 0 0 0 0 0 0 0 0 0 0 0 0 0
0 0 0 0 0 0 0 0 0 0 0 0 0 0 0 0 0 0 0 0 0 0 0 0 0 0 0 0 0 0 0 0 0 0 0 0 0 0 0 0 0 0 0
Wind_Speed_500mb
45 35 37 29 22 22 15 20 21 20 21 23 25 26 26 27 27 25 19 18 21 26 32 33 32 29 29 28 28 26 25 26 26 26 28 35 40 45 43 45 46 45 42
51 41 38 31 23 23 20 19 19 20 24 25 27 27 27 29 30 23 20 18 22 29 34 34 34 34 32 28 28 28 29 26 23 20 22 28 31 34 36 37 35 33 32
49 43 34 29 24 23 18 20 20 23 25 27 27 26 27 31 30 22 17 20 25 29 33 35 35 33 33 31 30 33 30 27 25 25 26 29 31 29 26 27 27 28 27
48 40 34 30 26 21 19 19 20 23 26 27 28 27 28 29 29 19 16 15 22 28 33 35 33 32 31 27 28 29 30 29 27 28 33 36 35 32 30 29 26 25 22
45 37 33 30 26 21 17 15 16 20 23 25 25 24 26 33 28 19 14 18 25 28 32 34 33 28 27 25 27 26 30 30 32 38 43 43 47 42 42 44 45 45 46
40 36 34 31 27 24 20 18 17 18 20 21 22 21 23 28 25 17 14 17 23 27 31 33 31 30 27 27 29 31 33 34 34 37 46 45 41 36 42 46 45 39 36
42 38 33 31 28 24 20 16 15 17 18 19 19 18 19 19 15 13 11 14 20 24 29 31 30 28 29 27 27 31 33 38 42 41 41 38 36 35 35 39 42 40 38
39 41 37 34 31 27 21 17 15 14 14 14 14 15 16 15 13 11 12 15 19 23 27 30 27 27 25 24 29 31 37 42 42 37 35 29 27 27 28 30 29 32 32
31 41 42 38 35 30 25 20 16 15 13 12 13 14 14 13 13 12 14 15 19 23 27 27 26 24 21 21 26 28 27 29 28 31 29 26 23 20 21 25 29 30 31
29 31 37 38 38 35 31 27 23 19 17 15 13 12 12 13 14 15 16 17 20 22 24 26 25 21 16 15 17 20 19 21 18 18 16 15 11 11 21 28 33 32 34
34 37 34 37 41 39 36 32 27 23 20 18 16 14 13 14 16 17 17 17 18 19 21 21 20 17 14 13 12 11 17 22 27 25 23 20 21 12 24 31 33 35 36
54 48 44 38 42 43 40 37 33 29 26 22 19 17 16 15 14 16 17 17 17 18 19 18 17 15 12 8 7 12 21 26 26 30 30 23 14 6 29 31 29 30 32
58 54 51 48 43 46 46 42 39 36 32 29 26 23 21 18 14 16 14 15 16 15 14 14 13 11 9 6 6 15 22 32 36 36 31 19 7 5 26 28 30 31 31
64 60 57 46 50 45 44 43 40 42 39 37 34 32 29 24 17 19 16 14 16 13 10 10 8 7 6 5 5 14 24 33 31 33 28 15 8 12 27 28 28 29 30
67 67 66 56 51 48 46 49 47 45 43 41 41 40 36 33 24 23 21 18 20 16 13 8 5 5 5 5 7 12 20 23 30 30 27 20 17 19 22 21 23 26 28
65 68 67 67 58 58 56 56 56 53 49 48 49 46 41 40 35 33 28 22 23 18 16 14 12 10 13 12 12 15 22 27 30 30 30 33 24 26 23 20 22 22 23
62 62 67 66 62 65 64 64 61 61 59 55 55 53 48 45 43 39 38 36 25 24 21 21 20 20 20 19 16 11 19 28 32 34 34 39 30 29 27 24 21 21 21
61 65 65 66 66 67 69 67 66 66 63 62 59 59 54 50 49 49 48 42 37 34 34 33 34 28 32 30 29 26 23 28 35 37 38 41 34 27 25 24 21 19 22
58 62 66 69 69 69 71 72 67 68 72 68 63 65 61 55 55 58 55 52 52 51 48 42 38 38 40 38 36 34 33 34 38 43 43 46 44 39 32 27 23 22 23
53 58 63 68 72 74 75 74 74 71 72 71 70 68 65 60 60 60 63 62 63 63 60 53 49 46 46 44 46 42 42 45 46 48 50 52 53 50 43 37 32 29 28
59 63 64 69 77 80 87 86 86 80 77 80 76 71 68 66 69 69 71 66 74 74 68 62 62 56 55 54 51 49 49 48 51 54 59 61 61 58 52 48 43 40 38
59 64 70 71 75 79 85 87 88 83 82 80 80 79 77 73 73 71 73 71 74 75 78 73 71 70 67 63 63 55 37 54 61 63 66 68 67 64 61 57 53 49 44
61 65 73 72 72 75 80 87 92 91 91 88 91 90 88 84 78 77 74 74 76 76 89 82 71 80 84 74 75 59 27 36 52 68 76 73 74 73 68 64 61 57 53
56 54 67 78 78 74 78 84 89 92 94 90 88 88 88 88 82 80 77 77 76 79 82 86 86 79 97 88 83 85 75 52 33 35 65 78 77 76 73 71 68 65 62
29 36 45 64 79 74 71 76 81 86 86 85 80 83 89 88 84 83 84 83 81 81 89 77 103 86 90 91 95 89 96 86 71 62 51 63 77 82 80 76 73 70 67
21 28 34 43 64 70 67 69 71 75 80 80 80 81 80 84 89 90 90 89 86 88 90 92 91 108 90 96 96 111 96 96 90 88 78 71 69 77 85 84 80 78 72
Wind_Direction_500mb
168 156 151 140 136 118 124 63 60 88 104 107 110 108 108 104 100 102 96 78 68 81 90 96 99 101 101 104 99 99 107 110 115 114 107 105 98 93 92 96 96 92 93
157 153 158 146 142 118 126 113 105 82 90 98 104 109 116 109 109 111 98 72 68 86 92 96 98 97 96 94 95 94 95 100 107 104 108 110 104 98 94 92 92 94 94
155 159 158 154 151 142 124 110 99 97 96 98 100 109 116 118 115 117 99 72 79 94 97 101 105 103 93 93 85 81 86 89 95 103 104 106 105 103 99 94 93 90 87
156 161 162 163 160 139 126 113 101 99 96 97 104 114 123 125 124 121 110 75 86 100 105 111 113 110 102 93 83 77 83 86 94 99 99 99 95 93 100 101 93 89 84
168 166 169 172 161 148 135 122 110 104 98 97 101 114 121 122 132 140 111 85 101 105 111 116 118 112 101 89 87 89 89 92 98 102 93 93 92 92 96 91 91 93 96
177 177 177 175 168 162 156 145 128 116 103 99 102 114 123 134 143 146 115 102 106 110 119 122 123 119 110 104 94 101 99 100 102 101 101 97 99 99 98 102 103 98 99
184 183 181 180 179 173 164 149 135 125 115 110 108 114 121 139 144 146 124 113 117 120 129 132 135 131 116 114 108 113 111 104 103 106 105 98 101 100 108 108 108 110 105
182 184 187 188 187 183 178 169 154 143 134 126 119 115 118 128 135 132 131 126 124 131 137 143 142 139 135 123 125 123 112 116 112 112 108 106 107 112 113 110 113 110 108
186 186 189 191 192 192 190 183 176 167 160 147 132 122 119 123 129 135 135 133 135 140 146 152 153 154 148 136 133 135 125 129 126 125 117 121 127 128 117 121 110 108 109
190 193 195 197 199 198 196 196 193 185 178 169 154 138 130 135 140 141 141 143 143 147 154 152 161 165 162 143 141 156 152 149 149 144 130 130 137 127 111 107 105 106 103
195 203 211 208 206 206 204 201 202 198 190 186 177 167 152 144 142 139 139 141 144 150 155 164 165 170 169 154 138 137 142 141 137 128 128 142 133 132 112 109 106 99 97
200 204 208 217 215 212 209 208 208 208 204 202 196 183 165 156 150 146 141 139 143 153 163 167 168 170 170 170 152 152 155 148 133 139 140 145 135 126 109 101 101 99 97
204 206 209 210 219 221 216 213 213 214 213 208 204 197 183 178 181 167 158 152 153 158 169 169 171 176 178 180 163 163 159 144 147 150 147 161 197 115 114 107 104 101 99
207 212 214 215 217 221 224 224 228 224 218 216 211 206 202 194 184 185 185 181 161 158 152 166 180 192 203 206 187 173 162 161 166 169 163 191 245 126 120 115 108 104 101
211 214 220 221 218 220 218 219 223 230 230 225 218 216 212 207 201 192 190 193 184 176 184 179 213 253 243 227 208 201 187 185 182 193 198 211 220 156 131 122 110 108 105
218 219 220 224 226 217 216 217 220 224 231 231 225 225 221 218 214 204 201 201 208 201 223 209 261 256 270 241 224 210 212 215 205 195 200 219 196 152 140 142 131 118 116
224 224 224 225 229 223 220 219 224 226 228 231 230 228 226 222 219 217 216 207 226 230 240 245 248 253 251 250 226 252 243 229 220 197 200 211 181 164 152 142 141 135 132
230 228 228 230 230 227 227 226 225 227 231 231 233 233 229 226 224 224 223 228 230 237 243 249 252 247 233 232 217 211 230 245 233 216 210 220 223 222 194 165 171 159 145
237 234 231 231 233 232 231 231 235 233 233 235 236 236 235 231 230 232 232 236 235 225 231 243 243 243 236 228 222 223 221 228 236 235 226 224 231 236 245 255 246 204 173
243 240 238 234 236 235 235 235 237 239 236 238 240 238 238 235 233 238 236 238 237 236 235 237 236 236 237 230 222 221 224 222 225 232 234 232 234 236 242 244 240 233 208
245 242 239 236 234 234 232 233 234 236 236 235 239 241 242 241 236 236 237 242 239 239 241 239 237 232 227 226 225 222 226 228 227 227 229 232 235 238 241 240 240 236 236
248 246 241 240 238 237 238 240 240 240 241 240 238 241 242 242 241 240 243 242 244 244 242 238 241 233 231 228 222 224 220 232 237 233 232 233 236 238 239 239 238 235 234
245 246 244 243 242 240 239 239 238 239 240 242 241 241 244 244 244 241 244 246 244 249 252 244 250 238 238 234 233 227 213 227 235 238 238 236 236 239 238 237 235 233 232
246 248 249 245 243 241 239 241 244 245 245 247 244 239 239 244 243 242 243 246 247 247 254 253 245 251 241 235 233 232 232 242 224 233 240 238 239 237 238 237 237 235 234
242 243 248 246 242 242 243 245 248 249 252 255 253 251 246 244 246 247 250 252 252 250 250 261 241 249 249 249 240 244 234 236 240 243 249 241 237 238 239 237 237 237 235
245 250 248 242 241 241 244 247 252 252 253 254 255 256 252 247 246 248 250 254 257 258 254 256 253 251 251 252 248 247 257 239 245 244 241 245 244 246 244 238 237 237 236
Wind_Speed_850mb
45 35 37 29 22 22 15 20 21 20 21 23 25 26 26 27 27 25 19 18 21 26 32 33 32 29 29 28 28 26 25 26 26 26 28 35 40 45 43 45 46 45 42
51 41 38 31 23 23 20 19 19 20 24 25 27 27 27 29 30 23 20 18 22 29 34 34 34 34 32 28 28 28 29 26 23 20 22 28 31 34 36 37 35 33 32
49 43 34 29 24 23 18 20 20 23 25 27 27 26 27 31 30 22 17 20 25 29 33 35 35 33 33 31 30 33 30 27 25 25 26 29 31 29 26 27 27 28 27
48 40 34 30 26 21 19 19 20 23 26 27 28 27 28 29 29 19 16 15 22 28 33 35 33 32 31 27 28 29 30 29 27 28 33 36 35 32 30 29 26 25 22
45 37 33 30 26 21 17 15 16 20 23 25 25 24 26 33 28 19 14 18 25 28 32 34 33 28 27 25 27 26 30 30 32 38 43 43 47 42 42 44 45 45 46
40 36 34 31 27 24 20 18 17 18 20 21 22 21 23 28 25 17 14 17 23 27 31 33 31 30 27 27 29 31 33 34 34 37 46 45 41 36 42 46 45 39 36
42 38 33 31 28 24 20 16 15 17 18 19 19 18 19 19 15 13 11 14 20 24 29 31 30 28 29 27 27 31 33 38 42 41 41 38 36 35 35 39 42 40 38
39 41 37 34 31 27 21 17 15 14 14 14 14 15 16 15 13 11 12 15 19 23 27 30 27 27 25 24 29 31 37 42 42 37 35 29 27 27 28 30 29 32 32
31 41 42 38 35 30 25 20 16 15 13 12 13 14 14 13 13 12 14 15 19 23 27 27 26 24 21 21 26 28 27 29 28 31 29 26 23 20 21 25 29 30 31
29 31 37 38 38 35 31 27 23 19 17 15 13 12 12 13 14 15 16 17 20 22 24 26 25 21 16 15 17 20 19 21 18 18 16 15 11 11 21 28 33 32 34
34 37 34 37 41 39 36 32 27 23 20 18 16 14 13 14 16 17 17 17 18 19 21 21 20 17 14 13 12 11 17 22 27 25 23 20 21 12 24 31 33 35 36
54 48 44 38 42 43 40 37 33 29 26 22 19 17 16 15 14 16 17 17 17 18 19 18 17 15 12 8 7 12 21 26 26 30 30 23 14 6 29 31 29 30 32
58 54 51 48 43 46 46 42 39 36 32 29 26 23 21 18 14 16 14 15 16 15 14 14 13 11 9 6 6 15 22 32 36 36 31 19 7 5 26 28 30 31 31
64 60 57 46 50 45 44 43 40 42 39 37 34 32 29 24 17 19 16 14 16 13 10 10 8 7 6 5 5 14 24 33 31 33 28 15 8 12 27 28 28 29 30
67 67 66 56 51 48 46 49 47 45 43 41 41 40 36 33 24 23 21 18 20 16 13 8 5 5 5 5 7 12 20 23 30 30 27 20 17 19 22 21 23 26 28
65 68 67 67 58 58 56 56 56 53 49 48 49 46 41 40 35 33 28 22 23 18 16 14 12 10 13 12 12 15 22 27 30 30 30 33 24 26 23 20 22 22 23
62 62 67 66 62 65 64 64 61 61 59 55 55 53 48 45 43 39 38 36 25 24 21 21 20 20 20 19 16 11 19 28 32 34 34 39 30 29 27 24 21 21 21
61 65 65 66 66 67 69 67 66 66 63 62 59 59 54 50 49 49 48 42 37 34 34 33 34 28 32 30 29 26 23 28 35 37 38 41 34 27 25 24 21 19 22
58 62 66 69 69 69 71 72 67 68 72 68 63 65 61 55 55 58 55 52 52 51 48 42 38 38 40 38 36 34 33 34 38 43 43 46 44 39 32 27 23 22 23
53 58 63 68 72 74 75 74 74 71 72 71 70 68 65 60 60 60 63 62 63 63 60 53 49 46 46 44 46 42 42 45 46 48 50 52 53 50 43 37 32 29 28
59 63 64 69 77 80 87 86 86 80 77 80 76 71 68 66 69 69 71 66 74 74 68 62 62 56 55 54 51 49 49 48 51 54 59 61 61 58 52 48 43 40 38
59 64 70 71 75 79 85 87 88 83 82 80 80 79 77 73 73 71 73 71 74 75 78 73 71 70 67 63 63 55 37 54 61 63 66 68 67 64 61 57 53 49 44
61 65 73 72 72 75 80 87 92 91 91 88 91 90 88 84 78 77 74 74 76 76 89 82 71 80 84 74 75 59 27 36 52 68 76 73 74 73 68 64 61 57 53
56 54 67 78 78 74 78 84 89 92 94 90 88 88 88 88 82 80 77 77 76 79 82 86 86 79 97 88 83 85 75 52 33 35 65 78 77 76 73 71 68 65 62
29 36 45 64 79 74 71 76 81 86 86 85 80 83 89 88 84 83 84 83 81 81 89 77 103 86 90 91 95 89 96 86 71 62 51 63 77 82 80 76 73 70 67
21 28 34 43 64 70 67 69 71 75 80 80 80 81 80 84 89 90 90 89 86 88 90 92 91 108 90 96 96 111 96 96 90 88 78 71 69 77 85 84 80 78 72
Wind_Direction_850mb
168 156 151 140 136 118 124 63 60 88 104 107 110 108 108 104 100 102 96 78 68 81 90 96 99 101 101 104 99 99 107 110 115 114 107 105 98 93 92 96 96 92 93
157 153 158 146 142 118 126 113 105 82 90 98 104 109 116 109 109 111 98 72 68 86 92 96 98 97 96 94 95 94 95 100 107 104 108 110 104 98 94 92 92 94 94
155 159 158 154 151 142 124 110 99 97 96 98 100 109 116 118 115 117 99 72 79 94 97 101 105 103 93 93 85 81 86 89 95 103 104 106 105 103 99 94 93 90 87
156 161 162 163 160 139 126 113 101 99 96 97 104 114 123 125 124 121 110 75 86 100 105 111 113 110 102 93 83 77 83 86 94 99 99 99 95 93 100 101 93 89 84
168 166 169 172 161 148 135 122 110 104 98 97 101 114 121 122 132 140 111 85 101 105 111 116 118 112 101 89 87 89 89 92 98 102 93 93 92 92 96 91 91 93 96
177 177 177 175 168 162 156 145 128 116 103 99 102 114 123 134 143 146 115 102 106 110 119 122 123 119 110 104 94 101 99 100 102 101 101 97 99 99 98 102 103 98 99
184 183 181 180 179 173 164 149 135 125 115 110 108 114 121 139 144 146 124 113 117 120 129 132 135 131 116 114 108 113 111 104 103 106 105 98 101 100 108 108 108 110 105
182 184 187 188 187 183 178 169 154 143 134 126 119 115 118 128 135 132 131 126 124 131 137 143 142 139 135 123 125 123 112 116 112 112 108 106 107 112 113 110 113 110 108
186 186 189 191 192 192 190 183 176 167 160 147 132 122 119 123 129 135 135 133 135 140 146 152 153 154 148 136 133 135 125 129 126 125 117 121 127 128 117 121 110 108 109
190 193 195 197 199 198 196 196 193 185 178 169 154 138 130 135 140 141 141 143 143 147 154 152 161 165 162 143 141 156 152 149 149 144 130 130 137 127 111 107 105 106 103
195 203 211 208 206 206 204 201 202 198 190 186 177 167 152 144 142 139 139 141 144 150 155 164 165 170 169 154 138 137 142 141 137 128 128 142 133 132 112 109 106 99 97
200 204 208 217 215 212 209 208 208 208 204 202 196 183 165 156 150 146 141 139 143 153 163 167 168 170 170 170 152 152 155 148 133 139 140 145 135 126 109 101 101 99 97
204 206 209 210 219 221 216 213 213 214 213 208 204 197 183 178 181 167 158 152 153 158 169 169 171 176 178 180 163 163 159 144 147 150 147 161 197 115 114 107 104 101 99
207 212 214 215 217 221 224 224 228 224 218 216 211 206 202 194 184 185 185 181 161 158 152 166 180 192 203 206 187 173 162 161 166 169 163 191 245 126 120 115 108 104 101
211 214 220 221 218 220 218 219 223 230 230 225 218 216 212 207 201 192 190 193 184 176 184 179 213 253 243 227 208 201 187 185 182 193 198 211 220 156 131 122 110 108 105
218 219 220 224 226 217 216 217 220 224 231 231 225 225 221 218 214 204 201 201 208 201 223 209 261 256 270 241 224 210 212 215 205 195 200 219 196 152 140 142 131 118 116
224 224 224 225 229 223 220 219 224 226 228 231 230 228 226 222 219 217 216 207 226 230 240 245 248 253 251 250 226 252 243 229 220 197 200 211 181 164 152 142 141 135 132
230 228 228 230 230 227 227 226 225 227 231 231 233 233 229 226 224 224 223 228 230 237 243 249 252 247 233 232 217 211 230 245 233 216 210 220 223 222 194 165 171 159 145
237 234 231 231 233 232 231 231 235 233 233 235 236 236 235 231 230 232 232 236 235 225 231 243 243 243 236 228 222 223 221 228 236 235 226 224 231 236 245 255 246 204 173
243 240 238 234 236 235 235 235 237 239 236 238 240 238 238 235 233 238 236 238 237 236 235 237 236 236 237 230 222 221 224 222 225 232 234 232 234 236 242 244 240 233 208
245 242 239 236 234 234 232 233 234 236 236 235 239 241 242 241 236 236 237 242 239 239 241 239 237 232 227 226 225 222 226 228 227 227 229 232 235 238 241 240 240 236 236
248 246 241 240 238 237 238 240 240 240 241 240 238 241 242 242 241 240 243 242 244 244 242 238 241 233 231 228 222 224 220 232 237 233 232 233 236 238 239 239 238 235 234
245 246 244 243 242 240 239 239 238 239 240 242 241 241 244 244 244 241 244 246 244 249 252 244 250 238 238 234 233 227 213 227 235 238 238 236 236 239 238 237 235 233 232
246 248 249 245 243 241 239 241 244 245 245 247 244 239 239 244 243 242 243 246 247 247 254 253 245 251 241 235 233 232 232 242 224 233 240 238 239 237 238 237 237 235 234
242 243 248 246 242 242 243 245 248 249 252 255 253 251 246 244 246 247 250 252 252 250 250 261 241 249 249 249 240 244 234 236 240 243 249 241 237 238 239 237 237 237 235
245 250 248 242 241 241 244 247 252 252 253 254 255 256 252 247 246 248 250 254 257 258 254 256 253 251 251 252 248 247 257 239 245 244 241 245 244 246 244 238 237 237 236